Hourly Weather Sokal

Today, 14 August, Friday

Time Temperature Precipitation Wind Pressure Humidity
00:00 +16°C° 0 mm 1 mps 745 mmHg 80%
01:00 +16°C° 0 mm 1 mps 745 mmHg 82%
02:00 +16°C° 0 mm 1 mps 745 mmHg 84%
03:00 +15°C° 0 mm 1 mps 745 mmHg 86%
04:00 +15°C° 0 mm 1 mps 745 mmHg 87%
05:00 +15°C° 0 mm 1 mps 745 mmHg 89%
06:00 +16°C° 0 mm 1 mps 745 mmHg 85%
07:00 +17°C° 0 mm 2 mps 745 mmHg 82%
08:00 +19°C° 0 mm 2 mps 745 mmHg 78%
09:00 +20°C° 0 mm 2 mps 745 mmHg 74%
10:00 +21°C° 0 mm 2 mps 745 mmHg 70%
11:00 +24°C° 0 mm 3 mps 746 mmHg 67%
12:00 +24°C° 0.1 mm 2 mps 745 mmHg 63%
13:00 +25°C° 0.1 mm 2 mps 745 mmHg 60%
14:00 +25°C° 0.1 mm 2 mps 745 mmHg 57%
15:00 +25°C° 0 mm 3 mps 745 mmHg 60%
16:00 +25°C° 0 mm 3 mps 745 mmHg 62%
17:00 +24°C° 0 mm 3 mps 745 mmHg 64%
18:00 +22°C° 0 mm 3 mps 745 mmHg 70%
19:00 +20°C° 0 mm 3 mps 745 mmHg 76%
20:00 +18°C° 0 mm 3 mps 745 mmHg 82%
21:00 +18°C° 0 mm 3 mps 745 mmHg 81%
22:00 +17°C° 0 mm 4 mps 745 mmHg 81%
23:00 +15°C° 0 mm 4 mps 745 mmHg 80%

Tomorrow, 15 August, Saturday

Time Temperature Precipitation Wind Pressure Humidity
00:00 +15°C° 0 mm 4 mps 745 mmHg 81%
01:00 +14°C° 0 mm 3 mps 745 mmHg 83%
02:00 +14°C° 0 mm 3 mps 745 mmHg 84%
03:00 +13°C° 0 mm 3 mps 745 mmHg 84%
04:00 +13°C° 0 mm 3 mps 745 mmHg 84%
05:00 +13°C° 0 mm 3 mps 744 mmHg 84%
06:00 +14°C° 0 mm 4 mps 745 mmHg 81%
07:00 +15°C° 0 mm 4 mps 745 mmHg 79%
08:00 +17°C° 0 mm 4 mps 745 mmHg 76%
09:00 +18°C° 0 mm 4 mps 745 mmHg 73%
10:00 +20°C° 0 mm 5 mps 745 mmHg 71%
11:00 +21°C° 0 mm 5 mps 745 mmHg 68%
12:00 +22°C° 0 mm 5 mps 745 mmHg 66%
13:00 +22°C° 0 mm 5 mps 745 mmHg 65%
14:00 +23°C° 0 mm 5 mps 745 mmHg 63%
15:00 +23°C° 0 mm 5 mps 745 mmHg 65%
16:00 +23°C° 0 mm 5 mps 745 mmHg 67%
17:00 +22°C° 0 mm 5 mps 744 mmHg 69%
18:00 +21°C° 0 mm 4 mps 744 mmHg 72%
19:00 +20°C° 0 mm 4 mps 744 mmHg 74%
20:00 +19°C° 0 mm 4 mps 744 mmHg 77%
21:00 +18°C° 0 mm 4 mps 744 mmHg 76%
22:00 +18°C° 0 mm 4 mps 745 mmHg 76%
23:00 +17°C° 0 mm 4 mps 745 mmHg 75%

Day after tomorrow, 16 August, Sunday

Time Temperature Precipitation Wind Pressure Humidity
00:00 +17°C° 0 mm 4 mps 745 mmHg 72%
01:00 +17°C° 0 mm 4 mps 745 mmHg 70%
02:00 +16°C° 0 mm 5 mps 744 mmHg 67%
03:00 +17°C° 0 mm 4 mps 744 mmHg 66%
04:00 +17°C° 0 mm 4 mps 744 mmHg 65%
05:00 +17°C° 0 mm 4 mps 744 mmHg 64%
06:00 +17°C° 0 mm 4 mps 745 mmHg 66%
07:00 +18°C° 0 mm 4 mps 745 mmHg 68%
08:00 +17°C° 0 mm 5 mps 745 mmHg 69%
09:00 +19°C° 0 mm 5 mps 745 mmHg 68%
10:00 +21°C° 0 mm 5 mps 745 mmHg 66%
11:00 +23°C° 0 mm 5 mps 745 mmHg 65%
12:00 +23°C° 0 mm 5 mps 745 mmHg 64%
13:00 +25°C° 0 mm 5 mps 745 mmHg 63%
14:00 +26°C° 0 mm 5 mps 745 mmHg 62%
15:00 +26°C° 0.1 mm 5 mps 745 mmHg 64%
16:00 +25°C° 0.1 mm 5 mps 745 mmHg 66%
17:00 +25°C° 0.1 mm 4 mps 744 mmHg 68%
18:00 +23°C° 0.1 mm 4 mps 744 mmHg 73%
19:00 +21°C° 0.1 mm 4 mps 744 mmHg 77%
20:00 +20°C° 0.1 mm 4 mps 744 mmHg 82%
21:00 +19°C° 0 mm 4 mps 744 mmHg 80%
22:00 +19°C° 0 mm 4 mps 744 mmHg 79%
23:00 +18°C° 0 mm 4 mps 744 mmHg 78%

17 August, Monday

Time Temperature Precipitation Wind Pressure Humidity
00:00 +17°C° 0 mm 5 mps 744 mmHg 75%
01:00 +17°C° 0 mm 5 mps 744 mmHg 73%
02:00 +17°C° 0 mm 5 mps 744 mmHg 71%
03:00 +17°C° 0.1 mm 4 mps 743 mmHg 68%
04:00 +17°C° 0.1 mm 4 mps 743 mmHg 65%
05:00 +17°C° 0.1 mm 4 mps 743 mmHg 63%
06:00 +17°C° 0.3 mm 4 mps 743 mmHg 66%
07:00 +18°C° 0.3 mm 4 mps 743 mmHg 69%
08:00 +18°C° 0.3 mm 3 mps 743 mmHg 73%
09:00 +20°C° 0.1 mm 3 mps 743 mmHg 73%
10:00 +21°C° 0.1 mm 3 mps 743 mmHg 72%
11:00 +24°C° 0.1 mm 3 mps 743 mmHg 72%
12:00 +24°C° 0.6 mm 3 mps 743 mmHg 72%
13:00 +25°C° 0.6 mm 3 mps 742 mmHg 71%
14:00 +26°C° 0.6 mm 2 mps 742 mmHg 71%
15:00 +26°C° 1 mm 2 mps 742 mmHg 72%
16:00 +26°C° 1 mm 2 mps 742 mmHg 72%
17:00 +26°C° 1 mm 2 mps 741 mmHg 73%
18:00 +25°C° 0.2 mm 2 mps 741 mmHg 78%
19:00 +23°C° 0.2 mm 2 mps 741 mmHg 84%
20:00 +21°C° 0.2 mm 2 mps 741 mmHg 89%
21:00 +20°C° 0.2 mm 2 mps 741 mmHg 90%
22:00 +20°C° 0.2 mm 2 mps 740 mmHg 91%
23:00 +19°C° 0.2 mm 2 mps 740 mmHg 91%

18 August, Tuesday

Time Temperature Precipitation Wind Pressure Humidity
00:00 +19°C° 0.3 mm 2 mps 740 mmHg 92%
01:00 +19°C° 0.3 mm 2 mps 740 mmHg 93%
02:00 +19°C° 0.3 mm 1 mps 740 mmHg 93%
03:00 +19°C° 0 mm 1 mps 740 mmHg 94%
04:00 +19°C° 0 mm 1 mps 739 mmHg 94%
05:00 +19°C° 0 mm 1 mps 739 mmHg 94%
06:00 +20°C° 0 mm 1 mps 739 mmHg 91%
07:00 +21°C° 0 mm 1 mps 739 mmHg 88%
08:00 +22°C° 0 mm 1 mps 739 mmHg 85%
09:00 +24°C° 0 mm 1 mps 739 mmHg 79%
10:00 +25°C° 0 mm 2 mps 739 mmHg 73%
11:00 +27°C° 0 mm 2 mps 739 mmHg 67%
12:00 +27°C° 0.2 mm 2 mps 739 mmHg 64%
13:00 +28°C° 0.2 mm 2 mps 739 mmHg 62%
14:00 +29°C° 0.2 mm 2 mps 738 mmHg 59%
15:00 +29°C° 0.8 mm 1 mps 738 mmHg 62%
16:00 +28°C° 0.8 mm 1 mps 738 mmHg 65%
17:00 +28°C° 0.8 mm 1 mps 738 mmHg 68%
18:00 +26°C° 0.3 mm 1 mps 737 mmHg 72%
19:00 +25°C° 0.3 mm 1 mps 737 mmHg 76%
20:00 +22°C° 0.3 mm 0 mps 737 mmHg 80%
21:00 +23°C° 0.2 mm 1 mps 737 mmHg 82%
22:00 +22°C° 0.2 mm 1 mps 737 mmHg 84%
23:00 +22°C° 0.2 mm 1 mps 737 mmHg 85%

19 August, Wednesday

Time Temperature Precipitation Wind Pressure Humidity
00:00 +20°C° 0.3 mm 2 mps 736 mmHg 88%
01:00 +20°C° 0.3 mm 2 mps 736 mmHg 90%
02:00 +20°C° 0.3 mm 3 mps 736 mmHg 92%
03:00 +19°C° 0.4 mm 3 mps 736 mmHg 93%
04:00 +19°C° 0.4 mm 4 mps 736 mmHg 94%
05:00 +19°C° 0.4 mm 4 mps 736 mmHg 95%
06:00 +19°C° 0 mm 5 mps 736 mmHg 94%
07:00 +19°C° 0 mm 5 mps 736 mmHg 92%
08:00 +20°C° 0 mm 6 mps 736 mmHg 90%
09:00 +20°C° 0 mm 6 mps 737 mmHg 89%
10:00 +20°C° 0 mm 6 mps 737 mmHg 87%
11:00 +20°C° 0 mm 6 mps 737 mmHg 86%
12:00 +20°C° 0.2 mm 6 mps 737 mmHg 85%
13:00 +20°C° 0.2 mm 6 mps 737 mmHg 83%
14:00 +21°C° 0.2 mm 6 mps 737 mmHg 82%
15:00 +21°C° 0.2 mm 6 mps 737 mmHg 82%
16:00 +21°C° 0.2 mm 6 mps 737 mmHg 82%
17:00 +21°C° 0.2 mm 6 mps 737 mmHg 82%
18:00 +20°C° 0.1 mm 5 mps 737 mmHg 84%
19:00 +19°C° 0.1 mm 4 mps 737 mmHg 87%
20:00 +18°C° 0.1 mm 3 mps 737 mmHg 90%
21:00 +18°C° 0 mm 3 mps 738 mmHg 91%
22:00 +17°C° 0 mm 3 mps 738 mmHg 92%
23:00 +17°C° 0 mm 3 mps 738 mmHg 93%
Show more